Regional Weather Roundup
Issued by NWS

Home | Current Version | Previous Version | Text Only | Print | Product List | Glossary Off
Versions: 1 2 3 4 5 6 7 8 9 10 11 12 13 14 15 16 17 18 19 20 21 22 23 24 25 26 27 28 29 30 31 32 33 34 35 36 37 38 39 40 41 42 43 44 45 46 47 48 49 50

235
ASUS45 KBOU 281207
RWRCO

WEATHER ROUNDUP FOR COLORADO
NATIONAL WEATHER SERVICE DENVER/BOULDER CO
600 AM MDT FRI APR 28 2017

NOTE: "FAIR" INDICATES FEW OR NO CLOUDS BELOW 12000 FEET WITH NO
SIGNIFICANT WEATHER AND/OR OBSTRUCTIONS TO VISIBILITY.

COZ001>005-013-030-031-281300-
...NORTHWEST COLORADO...

CITY           SKY/WX    TMP DP  RH WIND       PRES   REMARKS
CRAIG          LGT SNOW  30  25  81 W6        29.76R WCI  24
HAYDEN         FAIR      27  21  80 W6        29.75R WCI  20
MEEKER         LGT SNOW  28  26  92 NE3       29.75S FOG
MOUNT WERNER   NOT AVBL
STEAMBOAT SPGS CLOUDY    27  25  95 S5        29.73S WCI  21
WALDEN           N/A     21  16  79 S3        29.69F
$$

COZ006>008-011-281300-
...WEST CENTRAL VALLEYS...

CITY           SKY/WX    TMP DP  RH WIND       PRES   REMARKS
GRAND JUNCTION FAIR      26  18  71 CALM      29.75S
MONTROSE       FAIR      28  18  66 S12       29.79R WCI  18
EAGLE          LGT SNOW  27  23  85 E8        29.77R FOG     WCI  19
RIFLE          CLOUDY    31  29  92 S6        29.76R WCI  25
DELTA          FAIR      33  24  68 E7        29.75R WCI  27
NUCLA          FAIR      28  14  54 E8        29.80S WCI  20
$$

COZ017>023-064>068-281300-
...SOUTHWEST COLORADO...

CITY           SKY/WX    TMP DP  RH WIND       PRES   REMARKS
DURANGO        CLOUDY    37  20  50 SW14      29.74R
CORTEZ         CLOUDY    38  18  44 CALM      29.76F
PAGOSA SPRINGS MOCLDY    31  15  50 CALM      29.75S
TELLURIDE      FAIR      25  13  60 W3        29.77R
WOLF CREEK PAS CLOUDY    12  10  92 S14       29.77F WCI  -3
$$

COZ009-010-012-014-032>034-037-058>063-281300-
...CENTRAL COLORADO...

CITY           SKY/WX    TMP DP  RH WIND       PRES   REMARKS
ASPEN          CLOUDY    25  21  85 S6        29.72R WCI  18
BUENA VISTA    FAIR      21  12  69 NW8       29.70S WCI  11
COPPER MTN     MOCLDY    14   9  79 MISG      29.67R
BERTHOUD PASS  CLOUDY     7  -4  61 N10G31    29.63R WCI  -8
COTTONWOOD PAS FAIR      27  10  50 SW14G20   29.68F WCI  15
GUNNISON       FAIR      25  20  81 N3        29.74S
KREMMLING      FAIR      32  19  59 W5        29.74R WCI  27
LEADVILLE      CLOUDY    11   6  81 NE3       29.68S
MONARCH PASS     N/A     12  10  92 W24G31    29.78F WCI  -8
SALIDA         FAIR      26  17  71 W3        29.77F
SUNLIGHT       LGT SNOW N/A N/A N/A SW3       29.75S
WILKERSON PASS FAIR      12   5  73 SW10G18   29.69R WCI  -1
$$

COZ069>075-281300-
...SAN LUIS VALLEY/SANGRE DE CRISTO MOUNTAINS...

CITY           SKY/WX    TMP DP  RH WIND       PRES   REMARKS
ALAMOSA        FAIR      25  20  81 E3        29.71F
LA VETA PASS   FAIR      21  12  68 S13G22    29.82S WCI   9
SAGUACHE       FAIR      19  12  73 NW3       29.72F
$$

COZ035-036-038>040-281300-
...NORTHERN COLORADO FRONT RANGE...

CITY           SKY/WX    TMP DP  RH WIND       PRES   REMARKS
DENVER INTL AP FAIR      34  17  50 W10       29.62R WCI  26
DMNS CITY PARK   N/A     38  15  39 S7        29.64R
AURORA         PTCLDY    32  18  55 W9        29.64R WCI  24
FRONT RANGE AP FAIR      34  19  55 SW7       29.63S WCI  28
ERIE MUNI ARPT FAIR      31  27  84 S3        29.62S
BOULDER MUN AP FAIR      36  18  48 CALM      29.62R
CENTENNIAL     FAIR      33  16  49 SW6       29.64R WCI  28
BROOMFIELD     FAIR      36  16  44 CALM      29.63R
FORT COLLINS   FOG       31  30  96 NE6       29.63R VSB<1/4 WCI  25
LONGMONT       FAIR      32  29  89 NW5       29.64R FOG     WCI  28
$$

COZ041-046-047-076>085-087-088-281300-
...PIKES PEAK/PALMER DIVIDE AND SOUTHERN FOOTHILLS...

CITY           SKY/WX    TMP DP  RH WIND       PRES   REMARKS
COLO. SPRINGS  FAIR      31  23  72 NE9       29.66S WCI  23
A. F. ACADEMY  FAIR      35   8  33 W12       29.66S WCI  26
SCHRIEVER AFB  FAIR      29  24  82 N7        29.66S WCI  21
ELLICOTT       FAIR     N/A N/A N/A VRB3      29.65R
FALCON         FAIR      32  21  64 W10       29.67S WCI  23
FORT CARSON    FAIR      32  26  78 N7        29.65S WCI  26
LIMON          FAIR      24  23  96 CALM      29.65R
MONUMENT HILL  FAIR      28  14  54 SW8       29.67R WCI  20
TRINIDAD       FAIR      33  24  69 W10       29.69R WCI  25
$$

COZ042>045-048>051-090-091-281300-
...NORTHEAST COLORADO...

CITY           SKY/WX    TMP DP  RH WIND       PRES   REMARKS
GREELEY ARPT   FAIR      30  30 100 CALM      29.65R FOG
AKRON          FAIR      33  31  92 SW9       29.62R WCI  25
BURLINGTON     NOT AVBL
WRAY           NOT AVBL
STERLING       CLOUDY    37  37 100 CALM      29.62S
HOLYOKE        CLOUDY    37  36  93 N7        29.63S
FORT MORGAN    FAIR      31  30  96 W7        29.63R WCI  24
$$

COZ086-089-092>099-281300-
...SOUTHEAST COLORADO...

CITY           SKY/WX    TMP DP  RH WIND       PRES   REMARKS
PUEBLO         FAIR      36  27  69 NW10      29.65S
LA JUNTA       FAIR      37  34  89 CALM      29.66R
LAMAR          FAIR      33  31  92 S8        29.66R WCI  26
SPRINGFIELD      N/A     37  36  96 SW6       29.68R
$$




USA.gov is the U.S. government's official web portal to all federal, state and local government web resources and services.